| time (UTC) | temp C | wind direction | speed KPH | gust KPH | rain 1hr cm | rain 24hr cm | rain mn cm | humidity % | barometer mb |
| 20260503200035 | 18 | 314 | 9.7 | 16.1 | 0.00 | 0.00 | 0.00 | 35 | 1016.7 |
| 20260503194533 | 18 | 345 | 6.4 | 16.1 | 0.00 | 0.00 | 0.00 | 35 | 1017.1 |
| 20260503193033 | 17 | 32 | 11.3 | 19.3 | 0.00 | 0.00 | 0.00 | 36 | 1017.5 |
| 20260503191531 | 18 | 62 | 4.8 | 11.3 | 0.00 | 0.00 | 0.00 | 42 | 1017.6 |
| 20260503190039 | 18 | 284 | 9.7 | 16.1 | 0.00 | 0.00 | 0.00 | 40 | 1017.8 |
| 20260503184530 | 17 | 60 | 6.4 | 14.5 | 0.00 | 0.00 | 0.00 | 41 | 1018.0 |
| 20260503183030 | 18 | 3 | 6.4 | 12.9 | 0.00 | 0.00 | 0.00 | 36 | 1018.2 |
| 20260503181533 | 17 | 352 | 1.6 | 14.5 | 0.00 | 0.00 | 0.00 | 42 | 1018.3 |
| 20260503180029 | 16 | 300 | 6.4 | 14.5 | 0.00 | 0.00 | 0.00 | 42 | 1018.6 |
| 20260503174530 | 16 | 288 | 6.4 | 12.9 | 0.00 | 0.00 | 0.00 | 45 | 1018.6 |
| 20260503173049 | 16 | 30 | 3.2 | 12.9 | 0.00 | 0.00 | 0.00 | 44 | 1018.8 |
| 20260503171531 | 16 | 275 | 3.2 | 14.5 | 0.00 | 0.00 | 0.00 | 43 | 1019.1 |
| 20260503081546 | 2 | 0 | 0.0 | 1.6 | 0.00 | 0.00 | 0.00 | 93 | 1017.6 |
| 20260503071537 | 2 | 0 | 0.0 | 1.6 | 0.00 | 0.00 | 0.00 | 88 | 1017.3 |
| 20260503054537 | 3 | 0 | 0.0 | 1.6 | 0.00 | 0.00 | 0.00 | 85 | 1017.0 |
| 20260503053031 | 3 | 0 | 0.0 | 0.0 | 0.00 | 0.00 | 0.00 | 84 | 1017.0 |
| 20260503051532 | 4 | 0 | 0.0 | 1.6 | 0.00 | 0.00 | 0.00 | 83 | 1016.9 |
| 20260503050030 | 4 | 82 | 0.0 | 1.6 | 0.00 | 0.00 | 0.00 | 81 | 1016.7 |
| 20260503044540 | 5 | 0 | 0.0 | 1.6 | 0.00 | 0.00 | 0.00 | 80 | 1016.6 |
| 20260503043029 | 5 | 0 | 0.0 | 1.6 | 0.00 | 0.00 | 0.00 | 78 | 1016.5 |
| 20260503041530 | 6 | 0 | 0.0 | 3.2 | 0.00 | 0.00 | 0.00 | 77 | 1016.5 |
| 20260503040031 | 6 | 0 | 0.0 | 1.6 | 0.00 | 0.00 | 0.00 | 75 | 1016.1 |
| 20260503034534 | 6 | 0 | 0.0 | 1.6 | 0.00 | 0.00 | 0.00 | 74 | 1016.0 |
| 20260503033032 | 7 | 75 | 0.0 | 3.2 | 0.00 | 0.00 | 0.00 | 72 | 1016.1 |
| 20260503031530 | 7 | 0 | 0.0 | 1.6 | 0.00 | 0.00 | 0.00 | 66 | 1016.0 |
| 20260503030034 | 8 | 0 | 0.0 | 1.6 | 0.00 | 0.00 | 0.00 | 63 | 1015.7 |
| 20260503024529 | 8 | 0 | 0.0 | 3.2 | 0.00 | 0.00 | 0.00 | 64 | 1015.7 |
| 20260503023034 | 8 | 56 | 0.0 | 3.2 | 0.00 | 0.00 | 0.00 | 63 | 1015.5 |
| 20260503021531 | 8 | 0 | 0.0 | 1.6 | 0.00 | 0.00 | 0.00 | 62 | 1015.4 |
| 20260503020030 | 9 | 73 | 0.0 | 3.2 | 0.00 | 0.00 | 0.00 | 61 | 1015.3 |
| 20260503014529 | 10 | 0 | 0.0 | 6.4 | 0.00 | 0.00 | 0.00 | 58 | 1015.3 |
| 20260503013037 | 10 | 0 | 0.0 | 4.8 | 0.00 | 0.00 | 0.00 | 58 | 1015.1 |
| 20260503011533 | 9 | 0 | 0.0 | 1.6 | 0.00 | 0.00 | 0.00 | 62 | 1014.8 |
| 20260503010033 | 10 | 52 | 0.0 | 1.6 | 0.00 | 0.00 | 0.00 | 61 | 1014.7 |
| 20260503004555 | 10 | 0 | 0.0 | 1.6 | 0.00 | 0.00 | 0.00 | 55 | 1014.5 |
| 20260503003032 | 11 | 0 | 0.0 | 4.8 | 0.00 | 0.00 | 0.00 | 53 | 1014.1 |
| 20260503001530 | 12 | 0 | 0.0 | 4.8 | 0.00 | 0.00 | 0.00 | 48 | 1013.9 |
| 20260503000043 | 12 | 110 | 0.0 | 8.0 | 0.00 | 0.00 | 0.00 | 46 | 1013.6 |
| 20260502234531 | 13 | 5 | 1.6 | 11.3 | 0.00 | 0.00 | 0.00 | 44 | 1013.5 |
| 20260502233030 | 15 | 303 | 1.6 | 11.3 | 0.00 | 0.00 | 0.00 | 41 | 1013.1 |
| 20260502231531 | 15 | 96 | 1.6 | 9.7 | 0.00 | 0.00 | 0.00 | 43 | 1012.9 |
| 20260502230030 | 15 | 0 | 0.0 | 8.0 | 0.00 | 0.00 | 0.00 | 41 | 1012.8 |
| 20260502224532 | 15 | 34 | 3.2 | 16.1 | 0.00 | 0.00 | 0.00 | 39 | 1012.8 |
| 20260502223030 | 15 | 89 | 3.2 | 24.1 | 0.00 | 0.00 | 0.00 | 40 | 1012.5 |
| 20260502221534 | 15 | 121 | 3.2 | 11.3 | 0.00 | 0.00 | 0.00 | 39 | 1012.3 |
| 20260502220029 | 15 | 0 | 0.0 | 4.8 | 0.00 | 0.00 | 0.00 | 42 | 1012.0 |
| 20260502214532 | 15 | 89 | 1.6 | 6.4 | 0.00 | 0.00 | 0.00 | 41 | 1011.7 |
| 20260502213032 | 16 | 307 | 1.6 | 9.7 | 0.00 | 0.00 | 0.00 | 39 | 1011.4 |
| 20260502211529 | 17 | 82 | 1.6 | 8.0 | 0.00 | 0.00 | 0.00 | 38 | 1011.3 |
| 20260502210030 | 16 | 75 | 1.6 | 12.9 | 0.00 | 0.00 | 0.00 | 38 | 1011.3 |
| 20260502204530 | 17 | 127 | 3.2 | 12.9 | 0.00 | 0.00 | 0.00 | 37 | 1011.4 |
| 20260502203031 | 17 | 117 | 4.8 | 12.9 | 0.00 | 0.00 | 0.00 | 36 | 1011.4 |
| 20260502201535 | 18 | 174 | 3.2 | 14.5 | 0.00 | 0.00 | 0.00 | 34 | 1011.6 |